This is the latest recevied weather packets stored in our database for station/object K6HN. If no packets are shown the sender has not sent any weather packets the latest 10 day(s).
| Time | Temp. | Humidity | Pressure | Rain* | Wind** | Luminosity | Snow |
|---|---|---|---|---|---|---|---|
| 1777921979 | 15.56° C | 50% | 1001.4 hPa | 0 mm | - | - | - |
| 1777919279 | 14.44° C | 51% | 1001 hPa | 0 mm | - | - | - |
| 1777918379 | 13.89° C | 51% | 1001.4 hPa | 0 mm | - | - | - |
| 1777917479 | 13.89° C | 52% | 1001 hPa | 0 mm | - | - | - |
| 1777916579 | 13.89° C | 51% | 1001 hPa | 0 mm | - | - | - |
| 1777915679 | 13.89° C | 51% | 1000.7 hPa | 0 mm | - | - | - |
| 1777914779 | 14.44° C | 50% | 1000.7 hPa | 0 mm | - | - | - |
| 1777913879 | 13.89° C | 50% | 1000.3 hPa | 0 mm | - | - | - |
| 1777912979 | 13.89° C | 50% | 1000.3 hPa | 0 mm | - | - | - |
| 1777912079 | 13.89° C | 49% | 1000.7 hPa | 0 mm | - | - | - |
| 1777911179 | 13.33° C | 49% | 1000.3 hPa | 0 mm | - | - | - |
| 1777909379 | 12.22° C | 49% | 1000.3 hPa | 0 mm | - | - | - |
| 1777908479 | 12.22° C | 50% | 1000.3 hPa | 0 mm | - | - | - |
| 1777907579 | 11.67° C | 49% | 1000.3 hPa | 0 mm | - | - | - |
| 1777906679 | 11.11° C | 51% | 1000.3 hPa | 0 mm | - | - | - |
| 1777905779 | 10.56° C | 50% | 1000.3 hPa | 0 mm | - | - | - |
| 1777904879 | 10.56° C | 50% | 1000.3 hPa | 0 mm | - | - | - |
| 1777903079 | 10° C | 50% | 1000 hPa | 0 mm | - | - | - |
| 1777902179 | 10° C | 50% | 1000 hPa | 0 mm | - | - | - |
| 1777901279 | 10° C | 50% | 1000 hPa | 0 mm | - | - | - |
| 1777900379 | 10° C | 50% | 1000 hPa | 0 mm | - | - | - |
| 1777899479 | 10° C | 50% | 999.7 hPa | 0 mm | - | - | - |
| 1777898579 | 10° C | 50% | 999.7 hPa | 0 mm | - | - | - |
| 1777897679 | 10.56° C | 51% | 999.7 hPa | 0 mm | - | - | - |
| 1777896779 | 10.56° C | 51% | 999.7 hPa | 0 mm | - | - | - |
* Rain latest hour (hover to see other rain measurements)
** Current wind speed in m/s (hover to see current wind gust speed)